CHAMRAN-1

Last updated on Tue Oct 15 2024 00:02:03 GMT+0000 (Coordinated Universal Time)

1 61072U 24165B 24288.53584738 .00011208 00000+0 72972-3 0 9992 2 61072 64.0892 240.8247 0016163 291.5722 68.3670 15.08219980 4567
UTC large
Height (km)
Speed (km/s)
/
Latitude / Longitude
Inclination (degrees)
Orbital Period (minutes)
Azimuth
Elevation
Range (km)
Doppler Factor

Next 0 passes for location: London (51.5072 / 0.1276)

Sorry there are no passes over London.